| time (UTC) | temp C | wind direction | speed KPH | gust KPH | rain 1hr cm | rain 24hr cm | rain mn cm | humidity % | barometer mb |
| 20260509185755 | 30 | 205 | 1.6 | 1.6 | 0.00 | 0.00 | 0.00 | 22 | 1011.2 |
| 20260509185251 | 30 | 241 | 4.8 | 4.8 | 0.00 | 0.00 | 0.00 | 23 | 1011.2 |
| 20260509184749 | 30 | 177 | 4.8 | 4.8 | 0.00 | 0.00 | 0.00 | 23 | 1011.3 |
| 20260509184247 | 30 | 357 | 1.6 | 3.2 | 0.00 | 0.00 | 0.00 | 25 | 1011.5 |
| 20260509183743 | 30 | 117 | 1.6 | 1.6 | 0.00 | 0.00 | 0.00 | 25 | 1011.5 |
| 20260509183238 | 30 | 256 | 4.8 | 4.8 | 0.00 | 0.00 | 0.00 | 25 | 1011.6 |
| 20260509182734 | 30 | 138 | 0.0 | 0.0 | 0.00 | 0.00 | 0.00 | 25 | 1011.5 |
| 20260509182232 | 29 | 224 | 3.2 | 8.0 | 0.00 | 0.00 | 0.00 | 25 | 1011.7 |
| 20260509181729 | 29 | 235 | 4.8 | 4.8 | 0.00 | 0.00 | 0.00 | 25 | 1011.8 |
| 20260509181226 | 30 | 352 | 6.4 | 9.7 | 0.00 | 0.00 | 0.00 | 25 | 1011.6 |
| 20260509180723 | 30 | 242 | 1.6 | 1.6 | 0.00 | 0.00 | 0.00 | 25 | 1012.0 |
| 20260509180220 | 28 | 194 | 3.2 | 3.2 | 0.00 | 0.00 | 0.00 | 26 | 1012.2 |
| 20260509175716 | 28 | 213 | 4.8 | 8.0 | 0.00 | 0.00 | 0.00 | 25 | 1012.3 |
| 20260509175212 | 30 | 286 | 8.0 | 12.9 | 0.00 | 0.00 | 0.00 | 26 | 1012.3 |
| 20260509174708 | 29 | 204 | 3.2 | 4.8 | 0.00 | 0.00 | 0.00 | 26 | 1012.1 |
| 20260509174204 | 29 | 199 | 4.8 | 8.0 | 0.00 | 0.00 | 0.00 | 27 | 1012.4 |
| 20260509173700 | 29 | 255 | 8.0 | 9.7 | 0.00 | 0.00 | 0.00 | 25 | 1012.4 |
| 20260509173155 | 29 | 160 | 3.2 | 3.2 | 0.00 | 0.00 | 0.00 | 26 | 1012.4 |
| 20260509172652 | 28 | 222 | 6.4 | 8.0 | 0.00 | 0.00 | 0.00 | 27 | 1012.5 |
| 20260509172148 | 29 | 144 | 1.6 | 4.8 | 0.00 | 0.00 | 0.00 | 27 | 1012.5 |
| 20260509171643 | 28 | 173 | 8.0 | 12.9 | 0.00 | 0.00 | 0.00 | 26 | 1012.7 |
| 20260509171140 | 28 | 206 | 3.2 | 4.8 | 0.00 | 0.00 | 0.00 | 27 | 1012.8 |
| 20260509170638 | 28 | 235 | 3.2 | 8.0 | 0.00 | 0.00 | 0.00 | 28 | 1012.9 |
| 20260509170133 | 28 | 255 | 4.8 | 8.0 | 0.00 | 0.00 | 0.00 | 28 | 1012.8 |
| 20260509165631 | 28 | 253 | 6.4 | 8.0 | 0.00 | 0.00 | 0.00 | 28 | 1012.9 |
| 20260509165127 | 27 | 21 | 3.2 | 4.8 | 0.00 | 0.00 | 0.00 | 29 | 1012.9 |
| 20260509164624 | 28 | 235 | 6.4 | 9.7 | 0.00 | 0.00 | 0.00 | 28 | 1012.9 |
| 20260509164120 | 28 | 174 | 6.4 | 9.7 | 0.00 | 0.00 | 0.00 | 29 | 1013.1 |
| 20260509163617 | 28 | 292 | 4.8 | 4.8 | 0.00 | 0.00 | 0.00 | 30 | 1012.9 |
| 20260509163113 | 28 | 189 | 1.6 | 4.8 | 0.00 | 0.00 | 0.00 | 31 | 1012.8 |
| 20260509162610 | 27 | 198 | 3.2 | 3.2 | 0.00 | 0.00 | 0.00 | 31 | 1013.0 |
| 20260509162105 | 27 | 223 | 3.2 | 4.8 | 0.00 | 0.00 | 0.00 | 32 | 1013.0 |
| 20260509161557 | 27 | 221 | 4.8 | 9.7 | 0.00 | 0.00 | 0.00 | 32 | 1012.9 |
| 20260509161057 | 27 | 201 | 4.8 | 4.8 | 0.00 | 0.00 | 0.00 | 32 | 1012.9 |
| 20260509160553 | 27 | 239 | 3.2 | 3.2 | 0.00 | 0.00 | 0.00 | 34 | 1012.8 |
| 20260509160048 | 26 | 126 | 1.6 | 3.2 | 0.00 | 0.00 | 0.00 | 33 | 1013.0 |
| 20260509155545 | 26 | 50 | 1.6 | 3.2 | 0.00 | 0.00 | 0.00 | 35 | 1012.8 |
| 20260509155041 | 26 | 120 | 4.8 | 8.0 | 0.00 | 0.00 | 0.00 | 35 | 1012.8 |
| 20260509154537 | 26 | 184 | 4.8 | 4.8 | 0.00 | 0.00 | 0.00 | 36 | 1012.8 |
| 20260509154035 | 26 | 167 | 4.8 | 4.8 | 0.00 | 0.00 | 0.00 | 36 | 1012.9 |
| 20260509153532 | 26 | 218 | 1.6 | 3.2 | 0.00 | 0.00 | 0.00 | 38 | 1012.8 |
| 20260509153029 | 25 | 161 | 4.8 | 4.8 | 0.00 | 0.00 | 0.00 | 40 | 1012.9 |
| 20260509152524 | 25 | 189 | 4.8 | 4.8 | 0.00 | 0.00 | 0.00 | 41 | 1012.8 |
| 20260509152021 | 24 | 219 | 4.8 | 8.0 | 0.00 | 0.00 | 0.00 | 45 | 1013.0 |
| 20260509151518 | 23 | 217 | 1.6 | 3.2 | 0.00 | 0.00 | 0.00 | 50 | 1012.9 |
| 20260509151016 | 23 | 201 | 4.8 | 4.8 | 0.00 | 0.00 | 0.00 | 50 | 1012.9 |
| 20260509150513 | 23 | 134 | 1.6 | 3.2 | 0.00 | 0.00 | 0.00 | 50 | 1013.0 |
| 20260509150012 | 23 | 280 | 4.8 | 4.8 | 0.00 | 0.00 | 0.00 | 51 | 1012.8 |
| 20260509145507 | 22 | 229 | 1.6 | 3.2 | 0.00 | 0.00 | 0.00 | 54 | 1012.8 |
| 20260509145002 | 22 | 199 | 1.6 | 3.2 | 0.00 | 0.00 | 0.00 | 55 | 1012.8 |
| 20260509144459 | 22 | 136 | 0.0 | 0.0 | 0.00 | 0.00 | 0.00 | 55 | 1012.7 |
| 20260509143956 | 22 | 145 | 0.0 | 0.0 | 0.00 | 0.00 | 0.00 | 56 | 1012.6 |
| 20260509143453 | 22 | 276 | 3.2 | 3.2 | 0.00 | 0.00 | 0.00 | 54 | 1012.5 |
| 20260509142950 | 22 | 166 | 3.2 | 3.2 | 0.00 | 0.00 | 0.00 | 53 | 1012.6 |
| 20260509142446 | 21 | 175 | 1.6 | 1.6 | 0.00 | 0.00 | 0.00 | 56 | 1012.6 |
| 20260509141942 | 21 | 154 | 1.6 | 3.2 | 0.00 | 0.00 | 0.00 | 57 | 1012.7 |
| 20260509141438 | 20 | 251 | 4.8 | 11.3 | 0.00 | 0.00 | 0.00 | 58 | 1012.5 |
| 20260509140935 | 20 | 157 | 1.6 | 1.6 | 0.00 | 0.00 | 0.00 | 59 | 1012.5 |
| 20260509140431 | 20 | 172 | 1.6 | 3.2 | 0.00 | 0.00 | 0.00 | 61 | 1012.8 |
| 20260509135930 | 20 | 213 | 6.4 | 8.0 | 0.00 | 0.00 | 0.00 | 60 | 1012.6 |
| 20260509135427 | 19 | 179 | 1.6 | 3.2 | 0.00 | 0.00 | 0.00 | 62 | 1012.5 |
| 20260509134925 | 18 | 181 | 4.8 | 8.0 | 0.00 | 0.00 | 0.00 | 63 | 1012.5 |
| 20260509134422 | 18 | 139 | 1.6 | 1.6 | 0.00 | 0.00 | 0.00 | 65 | 1012.5 |
| 20260509133919 | 17 | 156 | 1.6 | 1.6 | 0.00 | 0.00 | 0.00 | 67 | 1012.3 |
| 20260509133415 | 17 | 200 | 4.8 | 4.8 | 0.00 | 0.00 | 0.00 | 68 | 1012.5 |
| 20260509132914 | 16 | 149 | 0.0 | 0.0 | 0.00 | 0.00 | 0.00 | 70 | 1012.4 |
| 20260509132412 | 16 | 192 | 1.6 | 3.2 | 0.00 | 0.00 | 0.00 | 71 | 1012.5 |
| 20260509131908 | 16 | 152 | 0.0 | 0.0 | 0.00 | 0.00 | 0.00 | 73 | 1012.7 |
| 20260509131406 | 15 | 277 | 1.6 | 3.2 | 0.00 | 0.00 | 0.00 | 75 | 1013.1 |
| 20260509130902 | 15 | 188 | 1.6 | 3.2 | 0.00 | 0.00 | 0.00 | 76 | 1012.8 |
| 20260509130357 | 15 | 149 | 0.0 | 0.0 | 0.00 | 0.00 | 0.00 | 77 | 1012.7 |
| 20260509125855 | 13 | 190 | 3.2 | 3.2 | 0.00 | 0.00 | 0.00 | 77 | 1012.8 |
| 20260509125351 | 13 | 144 | 0.0 | 0.0 | 0.00 | 0.00 | 0.00 | 78 | 1012.8 |
| 20260509124847 | 13 | 182 | 0.0 | 0.0 | 0.00 | 0.00 | 0.00 | 79 | 1012.7 |
| 20260509124344 | 12 | 160 | 0.0 | 0.0 | 0.00 | 0.00 | 0.00 | 79 | 1012.6 |
| 20260509123842 | 12 | 159 | 0.0 | 0.0 | 0.00 | 0.00 | 0.00 | 81 | 1012.4 |
| 20260509123339 | 12 | 140 | 0.0 | 0.0 | 0.00 | 0.00 | 0.00 | 82 | 1012.6 |
| 20260509122835 | 12 | 142 | 0.0 | 0.0 | 0.00 | 0.00 | 0.00 | 82 | 1012.4 |
| 20260509122332 | 12 | 144 | 0.0 | 0.0 | 0.00 | 0.00 | 0.00 | 82 | 1012.3 |
| 20260509121829 | 12 | 145 | 0.0 | 0.0 | 0.00 | 0.00 | 0.00 | 82 | 1012.3 |
| 20260509121326 | 12 | 147 | 0.0 | 0.0 | 0.00 | 0.00 | 0.00 | 81 | 1012.1 |
| 20260509120824 | 12 | 154 | 0.0 | 0.0 | 0.00 | 0.00 | 0.00 | 81 | 1012.1 |
| 20260509120322 | 11 | 158 | 0.0 | 0.0 | 0.00 | 0.00 | 0.00 | 81 | 1012.1 |
| 20260509115820 | 11 | 165 | 0.0 | 0.0 | 0.00 | 0.00 | 0.00 | 81 | 1012.1 |
| 20260509115316 | 11 | 192 | 0.0 | 0.0 | 0.00 | 0.00 | 0.00 | 82 | 1012.1 |
| 20260509114814 | 11 | 153 | 0.0 | 0.0 | 0.00 | 0.00 | 0.00 | 83 | 1012.2 |
| 20260509114313 | 11 | 137 | 0.0 | 0.0 | 0.00 | 0.00 | 0.00 | 83 | 1012.2 |
| 20260509113812 | 11 | 146 | 0.0 | 0.0 | 0.00 | 0.00 | 0.00 | 83 | 1011.8 |
| 20260509113308 | 11 | 151 | 0.0 | 0.0 | 0.00 | 0.00 | 0.00 | 82 | 1012.0 |
| 20260509112805 | 11 | 160 | 1.6 | 1.6 | 0.00 | 0.00 | 0.00 | 83 | 1011.8 |
| 20260509112306 | 11 | 151 | 0.0 | 0.0 | 0.00 | 0.00 | 0.00 | 83 | 1011.7 |
| 20260509111759 | 11 | 144 | 0.0 | 0.0 | 0.00 | 0.00 | 0.00 | 83 | 1011.7 |
| 20260509111256 | 11 | 144 | 0.0 | 0.0 | 0.00 | 0.00 | 0.00 | 83 | 1011.6 |
| 20260509110753 | 11 | 145 | 0.0 | 0.0 | 0.00 | 0.00 | 0.00 | 83 | 1011.6 |
| 20260509110249 | 11 | 144 | 0.0 | 0.0 | 0.00 | 0.00 | 0.00 | 83 | 1011.6 |
| 20260509105748 | 11 | 144 | 0.0 | 0.0 | 0.00 | 0.00 | 0.00 | 83 | 1011.7 |
| 20260509105245 | 11 | 145 | 0.0 | 0.0 | 0.00 | 0.00 | 0.00 | 82 | 1011.5 |
| 20260509104742 | 11 | 145 | 0.0 | 0.0 | 0.00 | 0.00 | 0.00 | 82 | 1011.7 |
| 20260509104239 | 11 | 145 | 0.0 | 0.0 | 0.00 | 0.00 | 0.00 | 83 | 1011.6 |
| 20260509103737 | 11 | 146 | 0.0 | 0.0 | 0.00 | 0.00 | 0.00 | 82 | 1011.6 |
| 20260509103234 | 11 | 149 | 0.0 | 0.0 | 0.00 | 0.00 | 0.00 | 82 | 1011.8 |
| 20260509102732 | 11 | 157 | 0.0 | 0.0 | 0.00 | 0.00 | 0.00 | 82 | 1011.8 |
| 20260509102229 | 11 | 155 | 0.0 | 0.0 | 0.00 | 0.00 | 0.00 | 82 | 1011.8 |
| 20260509101725 | 11 | 151 | 0.0 | 0.0 | 0.00 | 0.00 | 0.00 | 82 | 1012.0 |
| 20260509101221 | 11 | 147 | 0.0 | 0.0 | 0.00 | 0.00 | 0.00 | 81 | 1012.1 |
| 20260509100719 | 11 | 150 | 0.0 | 0.0 | 0.00 | 0.00 | 0.00 | 81 | 1011.8 |
| 20260509100216 | 11 | 156 | 0.0 | 0.0 | 0.00 | 0.00 | 0.00 | 80 | 1011.8 |
| 20260509095713 | 11 | 195 | 0.0 | 0.0 | 0.00 | 0.00 | 0.00 | 80 | 1012.2 |
| 20260509095210 | 11 | 153 | 0.0 | 0.0 | 0.00 | 0.00 | 0.00 | 80 | 1012.1 |
| 20260509094707 | 11 | 146 | 0.0 | 0.0 | 0.00 | 0.00 | 0.00 | 80 | 1012.2 |
| 20260509094204 | 11 | 147 | 0.0 | 0.0 | 0.00 | 0.00 | 0.00 | 79 | 1012.0 |
| 20260509093702 | 11 | 171 | 0.0 | 0.0 | 0.00 | 0.00 | 0.00 | 79 | 1012.2 |
| 20260509093159 | 11 | 171 | 1.6 | 1.6 | 0.00 | 0.00 | 0.00 | 79 | 1012.0 |
| 20260509092657 | 11 | 152 | 0.0 | 0.0 | 0.00 | 0.00 | 0.00 | 79 | 1012.1 |
| 20260509092155 | 11 | 168 | 0.0 | 0.0 | 0.00 | 0.00 | 0.00 | 79 | 1011.7 |
| 20260509091653 | 11 | 177 | 0.0 | 0.0 | 0.00 | 0.00 | 0.00 | 78 | 1011.8 |
| 20260509091148 | 11 | 154 | 0.0 | 0.0 | 0.00 | 0.00 | 0.00 | 77 | 1012.0 |
| 20260509090646 | 11 | 150 | 0.0 | 0.0 | 0.00 | 0.00 | 0.00 | 77 | 1012.0 |
| 20260509090143 | 11 | 162 | 0.0 | 0.0 | 0.00 | 0.00 | 0.00 | 77 | 1012.0 |
| 20260509085641 | 11 | 172 | 0.0 | 1.6 | 0.00 | 0.00 | 0.00 | 76 | 1012.2 |
| 20260509085137 | 11 | 162 | 0.0 | 1.6 | 0.00 | 0.00 | 0.00 | 76 | 1012.0 |
| 20260509084634 | 11 | 187 | 1.6 | 3.2 | 0.00 | 0.00 | 0.00 | 76 | 1012.2 |
| 20260509084131 | 11 | 183 | 1.6 | 1.6 | 0.00 | 0.00 | 0.00 | 77 | 1012.1 |
| 20260509083629 | 11 | 148 | 0.0 | 0.0 | 0.00 | 0.00 | 0.00 | 78 | 1012.1 |
| 20260509083125 | 11 | 150 | 0.0 | 0.0 | 0.00 | 0.00 | 0.00 | 78 | 1012.1 |
| 20260509082623 | 11 | 149 | 0.0 | 0.0 | 0.00 | 0.00 | 0.00 | 78 | 1012.3 |
| 20260509082119 | 11 | 153 | 0.0 | 0.0 | 0.00 | 0.00 | 0.00 | 77 | 1012.2 |
| 20260509081616 | 11 | 204 | 1.6 | 1.6 | 0.00 | 0.00 | 0.00 | 77 | 1012.1 |
| 20260509081113 | 11 | 197 | 0.0 | 0.0 | 0.00 | 0.00 | 0.00 | 76 | 1012.2 |
| 20260509080612 | 11 | 165 | 0.0 | 0.0 | 0.00 | 0.00 | 0.00 | 76 | 1012.2 |
| 20260509080109 | 12 | 188 | 0.0 | 0.0 | 0.00 | 0.00 | 0.00 | 76 | 1012.3 |
| 20260509075607 | 12 | 176 | 0.0 | 0.0 | 0.00 | 0.00 | 0.00 | 75 | 1012.2 |
| 20260509075104 | 12 | 166 | 0.0 | 0.0 | 0.00 | 0.00 | 0.00 | 75 | 1012.3 |
| 20260509074601 | 12 | 172 | 0.0 | 1.6 | 0.00 | 0.00 | 0.00 | 74 | 1012.2 |
| 20260509074057 | 12 | 151 | 0.0 | 0.0 | 0.00 | 0.00 | 0.00 | 74 | 1012.1 |
| 20260509073554 | 12 | 164 | 1.6 | 1.6 | 0.00 | 0.00 | 0.00 | 73 | 1012.3 |
| 20260509073050 | 12 | 201 | 1.6 | 1.6 | 0.00 | 0.00 | 0.00 | 72 | 1012.3 |
| 20260509072547 | 12 | 174 | 0.0 | 1.6 | 0.00 | 0.00 | 0.00 | 72 | 1012.3 |
| 20260509072044 | 12 | 172 | 3.2 | 4.8 | 0.00 | 0.00 | 0.00 | 71 | 1012.3 |
| 20260509071541 | 12 | 181 | 3.2 | 3.2 | 0.00 | 0.00 | 0.00 | 70 | 1012.4 |
| 20260509071038 | 13 | 184 | 1.6 | 1.6 | 0.00 | 0.00 | 0.00 | 69 | 1012.1 |
| 20260509070536 | 13 | 152 | 0.0 | 0.0 | 0.00 | 0.00 | 0.00 | 70 | 1012.5 |
| 20260509070032 | 13 | 209 | 0.0 | 1.6 | 0.00 | 0.00 | 0.00 | 69 | 1012.2 |
| 20260509065527 | 13 | 202 | 1.6 | 3.2 | 0.00 | 0.00 | 0.00 | 69 | 1012.3 |
| 20260509065024 | 12 | 146 | 0.0 | 0.0 | 0.00 | 0.00 | 0.00 | 71 | 1012.2 |
| 20260509064521 | 12 | 147 | 0.0 | 0.0 | 0.00 | 0.00 | 0.00 | 71 | 1012.1 |
| 20260509064019 | 12 | 147 | 0.0 | 0.0 | 0.00 | 0.00 | 0.00 | 71 | 1012.3 |
| 20260509063514 | 12 | 147 | 0.0 | 0.0 | 0.00 | 0.00 | 0.00 | 72 | 1012.3 |
| 20260509063012 | 12 | 149 | 0.0 | 0.0 | 0.00 | 0.00 | 0.00 | 73 | 1012.1 |
| 20260509062509 | 11 | 140 | 0.0 | 0.0 | 0.00 | 0.00 | 0.00 | 75 | 1012.3 |
| 20260509062007 | 10 | 138 | 0.0 | 0.0 | 0.00 | 0.00 | 0.00 | 78 | 1012.1 |
| 20260509061504 | 10 | 138 | 0.0 | 0.0 | 0.00 | 0.00 | 0.00 | 78 | 1012.0 |
| 20260509061001 | 10 | 139 | 0.0 | 0.0 | 0.00 | 0.00 | 0.00 | 79 | 1012.1 |
| 20260509060458 | 10 | 139 | 0.0 | 0.0 | 0.00 | 0.00 | 0.00 | 80 | 1012.3 |
| 20260509055953 | 10 | 139 | 0.0 | 0.0 | 0.00 | 0.00 | 0.00 | 79 | 1012.3 |
| 20260509055449 | 11 | 139 | 0.0 | 0.0 | 0.00 | 0.00 | 0.00 | 79 | 1012.2 |
| 20260509054945 | 11 | 139 | 0.0 | 0.0 | 0.00 | 0.00 | 0.00 | 79 | 1012.2 |
| 20260509054442 | 11 | 139 | 0.0 | 0.0 | 0.00 | 0.00 | 0.00 | 79 | 1012.2 |
| 20260509053940 | 11 | 139 | 0.0 | 0.0 | 0.00 | 0.00 | 0.00 | 78 | 1012.3 |
| 20260509053438 | 11 | 139 | 0.0 | 0.0 | 0.00 | 0.00 | 0.00 | 78 | 1012.2 |
| 20260509052935 | 11 | 139 | 0.0 | 0.0 | 0.00 | 0.00 | 0.00 | 77 | 1012.1 |
| 20260509052433 | 11 | 139 | 0.0 | 0.0 | 0.00 | 0.00 | 0.00 | 77 | 1012.1 |
| 20260509051931 | 11 | 139 | 0.0 | 0.0 | 0.00 | 0.00 | 0.00 | 75 | 1012.3 |
| 20260509051428 | 11 | 139 | 0.0 | 0.0 | 0.00 | 0.00 | 0.00 | 74 | 1012.3 |
| 20260509050925 | 12 | 139 | 0.0 | 0.0 | 0.00 | 0.00 | 0.00 | 75 | 1012.0 |
| 20260509050421 | 12 | 140 | 0.0 | 0.0 | 0.00 | 0.00 | 0.00 | 73 | 1012.3 |
| 20260509045918 | 12 | 140 | 0.0 | 0.0 | 0.00 | 0.00 | 0.00 | 73 | 1012.3 |
| 20260509045415 | 12 | 140 | 0.0 | 0.0 | 0.00 | 0.00 | 0.00 | 71 | 1012.3 |
| 20260509044912 | 13 | 140 | 0.0 | 0.0 | 0.00 | 0.00 | 0.00 | 71 | 1012.3 |
| 20260509044410 | 13 | 140 | 0.0 | 0.0 | 0.00 | 0.00 | 0.00 | 69 | 1012.3 |
| 20260509043907 | 13 | 141 | 0.0 | 0.0 | 0.00 | 0.00 | 0.00 | 68 | 1012.5 |
| 20260509043402 | 13 | 147 | 0.0 | 0.0 | 0.00 | 0.00 | 0.00 | 68 | 1012.2 |
| 20260509042858 | 13 | 152 | 0.0 | 0.0 | 0.00 | 0.00 | 0.00 | 66 | 1012.5 |
| 20260509042355 | 13 | 149 | 0.0 | 0.0 | 0.00 | 0.00 | 0.00 | 68 | 1012.4 |
| 20260509041851 | 12 | 150 | 0.0 | 0.0 | 0.00 | 0.00 | 0.00 | 71 | 1012.3 |
| 20260509041343 | 12 | 156 | 0.0 | 0.0 | 0.00 | 0.00 | 0.00 | 75 | 1012.2 |
| 20260509040841 | 11 | 125 | 0.0 | 0.0 | 0.00 | 0.00 | 0.00 | 77 | 1012.3 |
| 20260509040339 | 12 | 125 | 0.0 | 0.0 | 0.00 | 0.00 | 0.00 | 76 | 1012.2 |
| 20260509035835 | 12 | 125 | 0.0 | 0.0 | 0.00 | 0.00 | 0.00 | 76 | 1012.3 |
| 20260509035333 | 12 | 125 | 0.0 | 0.0 | 0.00 | 0.00 | 0.00 | 74 | 1012.3 |
| 20260509034828 | 12 | 125 | 0.0 | 0.0 | 0.00 | 0.00 | 0.00 | 75 | 1012.2 |
| 20260509034327 | 12 | 125 | 0.0 | 0.0 | 0.00 | 0.00 | 0.00 | 74 | 1012.1 |
| 20260509033823 | 12 | 125 | 0.0 | 0.0 | 0.00 | 0.00 | 0.00 | 72 | 1012.4 |
| 20260509033321 | 13 | 125 | 0.0 | 0.0 | 0.00 | 0.00 | 0.00 | 72 | 1012.1 |
| 20260509032817 | 13 | 125 | 0.0 | 0.0 | 0.00 | 0.00 | 0.00 | 71 | 1012.1 |
| 20260509032314 | 13 | 125 | 0.0 | 0.0 | 0.00 | 0.00 | 0.00 | 71 | 1012.2 |
| 20260509031812 | 13 | 125 | 0.0 | 0.0 | 0.00 | 0.00 | 0.00 | 70 | 1011.7 |
| 20260509031309 | 13 | 125 | 0.0 | 0.0 | 0.00 | 0.00 | 0.00 | 70 | 1012.0 |
| 20260509030807 | 13 | 125 | 0.0 | 0.0 | 0.00 | 0.00 | 0.00 | 69 | 1011.8 |
| 20260509030305 | 13 | 125 | 0.0 | 0.0 | 0.00 | 0.00 | 0.00 | 69 | 1011.8 |
| 20260509025801 | 13 | 125 | 0.0 | 0.0 | 0.00 | 0.00 | 0.00 | 69 | 1011.7 |
| 20260509025256 | 13 | 125 | 0.0 | 0.0 | 0.00 | 0.00 | 0.00 | 69 | 1012.0 |
| 20260509024752 | 14 | 125 | 0.0 | 0.0 | 0.00 | 0.00 | 0.00 | 69 | 1011.8 |
| 20260509024248 | 14 | 125 | 0.0 | 0.0 | 0.00 | 0.00 | 0.00 | 67 | 1011.6 |
| 20260509023746 | 15 | 125 | 0.0 | 0.0 | 0.00 | 0.00 | 0.00 | 66 | 1011.5 |
| 20260509023243 | 15 | 125 | 0.0 | 0.0 | 0.00 | 0.00 | 0.00 | 65 | 1011.4 |
| 20260509022739 | 15 | 125 | 0.0 | 0.0 | 0.00 | 0.00 | 0.00 | 63 | 1011.3 |
| 20260509022237 | 15 | 125 | 0.0 | 0.0 | 0.00 | 0.00 | 0.00 | 61 | 1011.2 |
| 20260509021733 | 16 | 125 | 0.0 | 0.0 | 0.00 | 0.00 | 0.00 | 60 | 1011.3 |
| 20260509021231 | 16 | 125 | 0.0 | 0.0 | 0.00 | 0.00 | 0.00 | 59 | 1011.4 |
| 20260509020729 | 17 | 125 | 0.0 | 0.0 | 0.00 | 0.00 | 0.00 | 58 | 1010.9 |
| 20260509020226 | 17 | 125 | 0.0 | 0.0 | 0.00 | 0.00 | 0.00 | 56 | 1011.2 |
| 20260509015724 | 17 | 125 | 0.0 | 0.0 | 0.00 | 0.00 | 0.00 | 54 | 1011.2 |
| 20260509015222 | 18 | 125 | 0.0 | 0.0 | 0.00 | 0.00 | 0.00 | 54 | 1011.0 |
| 20260509014718 | 18 | 123 | 0.0 | 0.0 | 0.00 | 0.00 | 0.00 | 53 | 1011.0 |
| 20260509014215 | 18 | 123 | 0.0 | 0.0 | 0.00 | 0.00 | 0.00 | 51 | 1010.8 |
| 20260509013712 | 19 | 125 | 0.0 | 0.0 | 0.00 | 0.00 | 0.00 | 51 | 1011.1 |
| 20260509013207 | 19 | 124 | 0.0 | 0.0 | 0.00 | 0.00 | 0.00 | 50 | 1010.9 |
| 20260509012704 | 20 | 110 | 0.0 | 1.6 | 0.00 | 0.00 | 0.00 | 49 | 1010.9 |
| 20260509012201 | 20 | 107 | 1.6 | 1.6 | 0.00 | 0.00 | 0.00 | 48 | 1010.7 |
| 20260509011658 | 20 | 116 | 0.0 | 0.0 | 0.00 | 0.00 | 0.00 | 47 | 1010.8 |
| 20260509011155 | 20 | 130 | 0.0 | 0.0 | 0.00 | 0.00 | 0.00 | 47 | 1010.6 |
| 20260509010653 | 21 | 123 | 0.0 | 0.0 | 0.00 | 0.00 | 0.00 | 47 | 1010.5 |
| 20260509010149 | 21 | 130 | 0.0 | 0.0 | 0.00 | 0.00 | 0.00 | 46 | 1010.7 |
| 20260509005647 | 21 | 120 | 0.0 | 0.0 | 0.00 | 0.00 | 0.00 | 45 | 1010.7 |
| 20260509005144 | 22 | 127 | 0.0 | 0.0 | 0.00 | 0.00 | 0.00 | 44 | 1010.6 |
| 20260509004639 | 22 | 115 | 0.0 | 1.6 | 0.00 | 0.00 | 0.00 | 43 | 1010.6 |
| 20260509004136 | 22 | 122 | 1.6 | 1.6 | 0.00 | 0.00 | 0.00 | 44 | 1010.6 |
| 20260509003635 | 22 | 102 | 3.2 | 3.2 | 0.00 | 0.00 | 0.00 | 42 | 1010.3 |
| 20260509003132 | 23 | 315 | 4.8 | 12.9 | 0.00 | 0.00 | 0.00 | 41 | 1010.3 |
| 20260509002629 | 23 | 115 | 0.0 | 0.0 | 0.00 | 0.00 | 0.00 | 41 | 1010.2 |
| 20260509002126 | 24 | 117 | 0.0 | 0.0 | 0.00 | 0.00 | 0.00 | 40 | 1010.3 |
| 20260509001624 | 25 | 163 | 0.0 | 0.0 | 0.00 | 0.00 | 0.00 | 40 | 1010.1 |
| 20260509001119 | 25 | 356 | 3.2 | 3.2 | 0.00 | 0.00 | 0.00 | 38 | 1010.0 |
| 20260509000618 | 25 | 112 | 3.2 | 3.2 | 0.00 | 0.00 | 0.00 | 39 | 1009.8 |
| 20260509000114 | 25 | 100 | 1.6 | 3.2 | 0.00 | 0.00 | 0.00 | 38 | 1009.8 |
| 20260508235612 | 25 | 124 | 0.0 | 0.0 | 0.00 | 0.00 | 0.00 | 40 | 1010.0 |
| 20260508235108 | 25 | 87 | 0.0 | 1.6 | 0.00 | 0.00 | 0.00 | 39 | 1009.9 |
| 20260508234606 | 26 | 350 | 1.6 | 9.7 | 0.00 | 0.00 | 0.00 | 38 | 1010.0 |
| 20260508234102 | 26 | 111 | 1.6 | 1.6 | 0.00 | 0.00 | 0.00 | 39 | 1009.8 |
| 20260508233601 | 26 | 312 | 4.8 | 8.0 | 0.00 | 0.00 | 0.00 | 37 | 1009.8 |
| 20260508233059 | 25 | 329 | 4.8 | 11.3 | 0.00 | 0.00 | 0.00 | 37 | 1009.9 |
| 20260508232555 | 26 | 62 | 1.6 | 4.8 | 0.00 | 0.00 | 0.00 | 37 | 1009.7 |
| 20260508232052 | 26 | 69 | 1.6 | 3.2 | 0.00 | 0.00 | 0.00 | 37 | 1009.3 |
| 20260508231550 | 26 | 137 | 0.0 | 0.0 | 0.00 | 0.00 | 0.00 | 37 | 1009.3 |
| 20260508231047 | 26 | 140 | 1.6 | 3.2 | 0.00 | 0.00 | 0.00 | 37 | 1009.5 |
| 20260508230543 | 26 | 125 | 3.2 | 3.2 | 0.00 | 0.00 | 0.00 | 36 | 1009.3 |
| 20260508230040 | 26 | 106 | 1.6 | 3.2 | 0.00 | 0.00 | 0.00 | 37 | 1009.3 |
| 20260508225537 | 26 | 316 | 1.6 | 4.8 | 0.00 | 0.00 | 0.00 | 37 | 1009.6 |
| 20260508225034 | 26 | 43 | 4.8 | 9.7 | 0.00 | 0.00 | 0.00 | 36 | 1009.3 |
| 20260508224532 | 27 | 326 | 11.3 | 16.1 | 0.00 | 0.00 | 0.00 | 37 | 1009.2 |
| 20260508224029 | 26 | 104 | 3.2 | 3.2 | 0.00 | 0.00 | 0.00 | 39 | 1009.1 |
| 20260508223527 | 27 | 102 | 3.2 | 4.8 | 0.00 | 0.00 | 0.00 | 39 | 1009.2 |
| 20260508223024 | 26 | 115 | 0.0 | 0.0 | 0.00 | 0.00 | 0.00 | 41 | 1009.3 |
| 20260508222521 | 27 | 347 | 1.6 | 3.2 | 0.00 | 0.00 | 0.00 | 40 | 1009.0 |
| 20260508222018 | 27 | 105 | 3.2 | 3.2 | 0.00 | 0.00 | 0.00 | 42 | 1009.2 |
| 20260508221514 | 26 | 96 | 3.2 | 8.0 | 0.00 | 0.00 | 0.00 | 42 | 1008.9 |
| 20260508221010 | 27 | 75 | 4.8 | 9.7 | 0.00 | 0.00 | 0.00 | 40 | 1009.0 |
| 20260508220507 | 28 | 290 | 3.2 | 3.2 | 0.00 | 0.00 | 0.00 | 38 | 1008.7 |
| 20260508220003 | 27 | 85 | 3.2 | 3.2 | 0.00 | 0.00 | 0.00 | 37 | 1008.9 |
| 20260508215500 | 27 | 26 | 8.0 | 11.3 | 0.00 | 0.00 | 0.00 | 37 | 1008.8 |
| 20260508214956 | 27 | 125 | 0.0 | 0.0 | 0.00 | 0.00 | 0.00 | 38 | 1009.1 |
| 20260508214454 | 27 | 68 | 6.4 | 8.0 | 0.00 | 0.00 | 0.00 | 38 | 1008.8 |
| 20260508213950 | 28 | 7 | 6.4 | 9.7 | 0.00 | 0.00 | 0.00 | 36 | 1008.7 |
| 20260508213448 | 28 | 19 | 4.8 | 8.0 | 0.00 | 0.00 | 0.00 | 37 | 1008.7 |
| 20260508212943 | 27 | 128 | 0.0 | 1.6 | 0.00 | 0.00 | 0.00 | 39 | 1008.7 |
| 20260508212440 | 27 | 331 | 4.8 | 4.8 | 0.00 | 0.00 | 0.00 | 38 | 1009.0 |
| 20260508211936 | 27 | 124 | 3.2 | 3.2 | 0.00 | 0.00 | 0.00 | 38 | 1009.2 |
| 20260508211431 | 27 | 125 | 0.0 | 1.6 | 0.00 | 0.00 | 0.00 | 41 | 1009.1 |
| 20260508210929 | 26 | 103 | 3.2 | 3.2 | 0.00 | 0.00 | 0.00 | 41 | 1009.1 |
| 20260508210426 | 27 | 115 | 3.2 | 3.2 | 0.00 | 0.00 | 0.00 | 39 | 1009.2 |
| 20260508205922 | 25 | 17 | 3.2 | 4.8 | 0.00 | 0.00 | 0.00 | 41 | 1009.2 |
| 20260508205419 | 25 | 122 | 1.6 | 4.8 | 0.00 | 0.00 | 0.00 | 41 | 1008.8 |
| 20260508204915 | 25 | 240 | 1.6 | 3.2 | 0.00 | 0.00 | 0.00 | 42 | 1009.3 |
| 20260508204413 | 25 | 119 | 1.6 | 1.6 | 0.00 | 0.00 | 0.00 | 45 | 1009.2 |
| 20260508203908 | 25 | 48 | 4.8 | 8.0 | 0.00 | 0.00 | 0.00 | 45 | 1009.5 |
| 20260508203404 | 25 | 121 | 0.0 | 1.6 | 0.00 | 0.00 | 0.00 | 47 | 1009.3 |
| 20260508202900 | 25 | 19 | 4.8 | 8.0 | 0.00 | 0.00 | 0.00 | 43 | 1009.6 |
| 20260508202358 | 26 | 298 | 4.8 | 4.8 | 0.00 | 0.00 | 0.00 | 43 | 1009.7 |
| 20260508201855 | 27 | 300 | 4.8 | 4.8 | 0.00 | 0.00 | 0.00 | 41 | 1009.7 |
| 20260508201351 | 26 | 107 | 1.6 | 3.2 | 0.00 | 0.00 | 0.00 | 45 | 1009.7 |
| 20260508200848 | 26 | 144 | 0.0 | 0.0 | 0.00 | 0.00 | 0.00 | 45 | 1009.6 |
| 20260508200345 | 25 | 98 | 0.0 | 0.0 | 0.00 | 0.00 | 0.00 | 46 | 1009.5 |
| 20260508195840 | 25 | 261 | 3.2 | 3.2 | 0.00 | 0.00 | 0.00 | 49 | 1009.7 |
| 20260508195337 | 23 | 277 | 4.8 | 4.8 | 0.00 | 0.00 | 0.00 | 49 | 1010.0 |
| 20260508194833 | 22 | 79 | 1.6 | 3.2 | 0.00 | 0.00 | 0.00 | 49 | 1009.9 |
| 20260508194331 | 22 | 126 | 0.0 | 0.0 | 0.00 | 0.00 | 0.00 | 52 | 1009.8 |
| 20260508193828 | 22 | 84 | 1.6 | 3.2 | 0.00 | 0.00 | 0.00 | 52 | 1010.1 |
| 20260508193324 | 22 | 131 | 0.0 | 0.0 | 0.00 | 0.00 | 0.00 | 54 | 1010.3 |
| 20260508192820 | 22 | 162 | 3.2 | 3.2 | 0.00 | 0.00 | 0.00 | 53 | 1010.2 |
| 20260508192318 | 22 | 203 | 3.2 | 3.2 | 0.00 | 0.00 | 0.00 | 52 | 1010.2 |
| 20260508191814 | 22 | 241 | 1.6 | 3.2 | 0.00 | 0.00 | 0.00 | 51 | 1010.4 |
| 20260508191312 | 22 | 239 | 4.8 | 4.8 | 0.00 | 0.00 | 0.00 | 52 | 1010.6 |
| 20260508190804 | 22 | 155 | 1.6 | 1.6 | 0.00 | 0.00 | 0.00 | 54 | 1010.2 |
| 20260508190259 | 22 | 145 | 3.2 | 3.2 | 0.00 | 0.00 | 0.00 | 54 | 1010.3 |